Location: Terra Rouge Observatory
(46.0000°N, 62.7500°W)
Time: 04:23:16
(UTC-03:00)

Daily predictions for brighter satellites

Satellite Brightness Start Highest point End
(mag) Time Altitude Azimuth Time Altitude Azimuth Time Altitude Azimuth
NOSS 3-4 (C) 3.4 00:06:46 75° E 00:06:46 75° E 00:12:53 10° NE
Cosmos 1818 3.9 00:07:28 61° WNW 00:07:45 62° NW 00:13:11 10° NNE
Cosmos 2184 Rocket 4.4 00:12:05 50° ENE 00:12:05 50° ENE 00:17:30 10° NNE
Cosmos 2237 Rocket 2.5 00:15:20 58° NE 00:15:20 58° NE 00:19:53 10° NNE
CENTAUR R/B 3.2 00:07:35 10° NW 00:15:21 69° NE 00:17:29 51° ESE
Cosmos 2074 Rocket 4.2 00:16:50 58° ENE 00:16:50 58° ENE 00:22:31 10° NNE
Mayak 1.2 00:14:42 10° NE 00:15:38 15° NE 00:15:38 15° NE
Cosmos 1980 3.9 00:20:41 68° NNE 00:20:41 68° NNE 00:25:38 10° NNE
CZ-4B R/B 4.1 00:18:13 10° N 00:22:01 50° NNW 00:22:01 50° NNW
USA 215 3.6 00:25:50 42° E 00:27:55 61° NNE 00:34:21 10° NW
Cosmos 2181 Rocket 4.4 00:26:06 10° NNW 00:32:20 53° W 00:32:35 53° W
Cosmos 2297 3.9 00:28:53 10° NNW 00:33:50 67° N 00:33:50 67° N
BREEZE M DEB (TANK) 3.9 00:25:47 10° WSW 00:37:49 75° NW 00:37:49 75° NW
Lacrosse 5 3.6 00:36:28 10° W 00:40:57 30° NNW 00:45:27 10° NE
ATLAS CENTAUR R/B 3.7 00:40:58 10° NNW 00:42:15 19° NNW 00:42:15 19° NNW
ALOS 2 4.1 00:48:31 34° NNW 00:48:31 34° NNW 00:51:05 10° NNW
Cosmos 2278 Rocket 3.4 00:45:40 10° NW 00:49:36 32° W 00:49:36 32° W
Meteor 2-8 Rocket 4.5 00:46:33 10° N 00:52:16 75° NNE 00:52:16 75° NNE
COSMOS 2455 3.0 00:53:56 10° NNW 00:59:11 69° NNW 00:59:11 69° NNW
Meteor 2-5 Rocket 4.2 00:57:03 10° NNW 01:02:05 58° WNW 01:02:05 58° WNW
Meteor 1-24 Rocket 4.0 01:02:51 10° N 01:07:53 68° NNW 01:07:53 68° NNW
Cosmos 2154 Rocket 4.0 01:10:52 72° NE 01:10:52 72° NE 01:16:31 10° N
GEOS 3 Rocket 4.2 01:12:48 51° NE 01:12:48 51° NE 01:17:49 10° NNW
BREEZE-M DEB (TANK) 3.8 01:05:56 10° W 01:14:19 52° NW 01:14:19 52° NW
RESURS DK-1 4.4 01:17:14 27° N 01:17:14 27° N 01:19:27 10° NNE
Cosmos 2219 Rocket 4.1 01:14:24 20° W 01:16:33 24° NW 01:21:08 10° N
CZ-2C R/B 3.6 01:14:37 10° N 01:19:21 41° WNW 01:19:21 41° WNW
SL-16 R/B 2.5 01:21:37 62° N 01:21:37 62° N 01:26:26 10° NNE
Cosmos 2333 Rocket 4.1 01:32:48 18° WNW 01:34:55 22° NW 01:39:18 10° N
Cosmos 1898 Rocket 4.2 01:35:09 10° NNW 01:39:41 50° NE 01:39:41 50° NE
SL-8 Rocket 4.1 01:45:21 67° ENE 01:45:21 67° ENE 01:51:15 10° NNE
Meteor 1-21 Rocket 4.5 01:39:15 10° N 01:44:47 68° NE 01:44:47 68° NE
Cosmos 1943 Rocket 3.3 01:43:30 10° NNW 01:48:36 37° NE 01:49:43 33° E
Meteor 2-15 4.5 01:43:26 10° N 01:49:18 74° NE 01:49:18 74° NE
Cosmos 2218 Rocket 4.2 01:50:54 63° E 01:50:54 63° E 01:57:12 10° NNE
Mayak 0.8 01:50:10 10° N 01:52:18 24° NNW 01:52:18 24° NNW
Cosmos 2237 Rocket 4.1 01:57:08 18° WNW 01:58:58 21° NW 02:03:12 10° N
Cosmos 2369 Rocket 2.4 01:54:39 10° NNW 01:59:57 68° NNE 01:59:57 68° NNE
CENTAUR R/B 3.9 01:58:45 10° NW 02:04:37 34° W 02:04:37 34° W
CZ-2D R/B 4.4 02:03:57 10° ENE 02:06:25 13° E 02:07:36 12° E
Meteor 2-21 4.4 02:07:24 84° NNW 02:07:24 84° NNW 02:13:28 10° N
Cosmos 371 Rocket 4.3 02:10:13 41° ENE 02:10:13 41° ENE 02:13:40 10° NNE
Cosmos 2341 Rocket 4.3 02:10:16 53° WNW 02:10:16 53° WNW 02:16:18 10° N
Cosmos 2298 Rocket 4.4 02:05:08 10° NNW 02:09:44 63° NNE 02:09:44 63° NNE
USA 215 4.0 02:13:10 38° W 02:13:10 38° W 02:17:22 10° WNW
Cosmos 1809 Rocket 4.4 02:12:31 77° WNW 02:12:31 77° WNW 02:18:34 10° N
Cosmos 1943 3.6 02:14:20 54° E 02:14:20 54° E 02:19:15 10° NNE
Cosmos 1339 Rocket 4.3 02:18:27 10° N 02:24:38 88° W 02:24:41 88° SW
Lacrosse 5 4.1 02:21:08 10° NW 02:25:14 24° N 02:29:20 10° ENE
Cosmos 864 Rocket 4.3 02:31:18 78° W 02:31:23 79° W 02:37:36 10° N
ADEOS Rocket 3.2 02:29:14 10° NNE 02:34:36 51° E 02:34:48 50° ESE
Cosmos-2242 3.9 02:37:57 48° NNE 02:37:57 48° NNE 02:41:11 10° N
SL-08 R/B 3.9 02:36:59 51° ENE 02:36:59 51° ENE 02:41:35 10° N
H-2A R/B 4.0 02:33:11 10° N 02:35:19 30° N 02:35:19 30° N
Cosmos 2366 rocket 4.0 02:39:49 65° W 02:40:05 65° W 02:46:25 10° N
Cosmos 1626 4.0 02:37:38 10° N 02:40:05 29° NE 02:40:05 29° NE
Cosmos 1727 Rocket 3.9 02:35:45 10° NNW 02:41:50 67° W 02:41:50 67° W
Cosmos 2263 4.3 02:39:47 10° NNW 02:44:36 62° WNW 02:44:36 62° WNW
Cosmos 1603 4.5 02:55:31 38° WNW 02:56:04 39° NW 03:01:21 10° NNE
Cosmos 967 Rocket 4.3 02:57:35 68° S 02:58:18 78° ESE 03:04:40 10° NE
Cosmos 1703 4.3 02:55:07 10° N 02:58:14 43° NE 02:58:14 43° NE
Meteor 1-11 4.1 02:55:28 10° N 03:01:07 89° W 03:01:37 76° S
Cosmos 2058 3.5 03:00:25 10° N 03:03:51 55° NNE 03:03:51 55° NNE
Cosmos 2221 3.9 03:04:07 29° ESE 03:04:39 30° E 03:08:27 10° NNE
NPP 3.5 03:00:05 10° NNE 03:05:31 79° ESE 03:06:01 72° SSE
SL-16 R/B 4.3 03:03:29 13° WNW 03:05:53 16° NW 03:09:24 10° N
CBERS-1 3.9 03:03:02 10° NNE 03:08:11 78° ESE 03:08:29 75° SE
BREEZE M DEB (TANK) 3.5 03:11:47 38° ESE 03:11:47 38° ESE 03:16:04 10° ESE
IRS-1C 4.2 03:06:23 10° NNE 03:11:43 66° ESE 03:12:33 57° SSE
Cosmos 2098 Rocket 4.0 03:11:29 45° SSE 03:13:01 60° E 03:17:59 10° NNE
Cosmos 1763 Rocket 3.5 03:14:49 64° WNW 03:14:53 64° WNW 03:19:57 10° NNE
Cosmos 1842 Rocket 3.6 03:17:43 73° N 03:17:43 73° N 03:21:41 10° N
Meteor 2-1 Rocket 4.4 03:16:14 50° SSE 03:17:31 65° E 03:23:00 10° NNE
Cosmos 540 Rocket 3.8 03:18:25 50° SE 03:19:10 55° ESE 03:24:11 10° NNE
MOS 1 Rocket 3.8 03:23:02 10° NNE 03:27:13 46° E 03:28:01 41° SE
Cosmos 1743 Rocket 4.4 03:23:59 10° NNW 03:27:14 38° NW 03:27:14 38° NW
Cosmos 1908 3.9 03:28:30 47° E 03:28:33 47° E 03:32:15 10° NNE
Cosmos 1943 Rocket 3.0 03:27:17 10° NW 03:31:11 34° W 03:31:11 34° W
Cosmos 1125 Rocket 3.3 03:27:25 10° NNW 03:32:40 84° WSW 03:34:02 51° SSE
SL-16 R/B 2.4 03:30:31 42° S 03:32:49 78° WSW 03:39:05 10° NNW
Cosmos 2151 3.5 03:29:04 10° NNW 03:32:22 46° NW 03:32:22 46° NW
Cosmos 2123 Rocket 3.9 03:26:58 10° N 03:33:17 85° E 03:36:15 34° S
Iridium 2 4.4 03:37:22 45° NW 03:37:22 45° NW 03:40:24 10° N
Resurs 1-4 Rocket 2.1 03:31:37 10° NNE 03:36:54 78° ESE 03:38:22 49° S
Cosmos 1821 Rocket 4.0 03:35:32 49° SW 03:37:15 71° W 03:43:28 10° N
IRS-P3 4.3 03:32:07 10° N 03:37:19 54° WNW 03:38:11 48° WSW
Sich 1 4.4 03:33:37 10° N 03:37:44 37° ENE 03:40:51 16° SE
Cosmos 1242 Rocket 3.5 03:41:23 39° NNW 03:41:23 39° NNW 03:44:01 10° N
Cosmos 1656 Rocket 3.6 03:34:50 10° NNW 03:40:32 73° WSW 03:42:48 37° S
ERS-1 4.3 03:37:37 10° NNE 03:42:37 86° ESE 03:43:50 53° S
Cosmos 2369 Rocket 4.1 03:39:57 10° WNW 03:41:42 15° WNW 03:41:42 15° WNW
BREEZE-M DEB (TANK) 2.1 03:44:13 85° W 03:44:17 89° NNW 03:49:54 10° E
Gblst 52 Del rocket 4.3 03:41:58 38° W 03:44:18 72° NNW 03:49:54 10° ENE
USA 229 DEB 3.7 03:39:57 10° NW 03:47:07 82° SW 03:54:26 10° SSE
USA 229 3.7 03:40:03 10° NW 03:47:13 83° SW 03:54:32 10° SSE
CZ-2D R/B 2.0 03:41:49 10° NNE 03:47:15 88° WNW 03:48:56 46° SSW
CZ-3A R/B 3.5 03:39:54 10° NW 03:48:29 47° SW 03:53:37 10° SSE
Cosmos 1315 Rocket 3.8 03:46:20 10° N 03:50:15 45° ENE 03:52:54 18° SE
Cosmos 1934 Rocket 3.9 03:50:06 42° SSW 03:52:10 70° W 03:58:14 10° N
AQUA 4.3 03:49:49 10° N 03:54:20 44° WNW 03:55:02 41° W
Cosmos 841 Rocket 4.4 04:01:51 30° W 04:03:09 34° WNW 04:07:52 10° N
Cosmos 1605 Rocket 4.0 04:02:48 31° SSW 04:06:08 79° W 04:12:35 10° N
Cosmos 1633 Rocket 3.5 04:01:47 10° N 04:06:08 60° E 04:09:49 14° SSE
Lacrosse 5 3.1 04:04:28 10° NW 04:09:18 42° NNE 04:14:07 10° E
ARIANE 5 R/B 2.6 04:04:53 10° N 04:10:05 66° WNW 04:12:11 36° SW
Cosmos 292 Rocket 4.1 04:07:52 29° S 04:10:09 61° ESE 04:14:55 10° NNE
Cosmos 1626 4.3 04:13:43 10° NW 04:14:42 14° WNW 04:14:42 14° WNW
USA 161 3.0 04:16:41 22° E 04:16:58 23° ENE 04:18:38 10° NNE
ADEOS Rocket 4.1 04:15:28 10° N 04:19:51 25° WNW 04:21:45 21° W
NOSS 3-1 (C) 4.1 04:14:25 10° NW 04:21:57 87° NE 04:30:19 10° SE
EP 1 4.4 04:22:12 61° NNW 04:22:12 61° NNW 04:24:42 10° NNE
UNKNOWN OBJECT B 2.8 04:18:47 10° N 04:22:52 79° WNW 04:24:33 34° SSW
Cosmos 1400 Rocket 3.3 04:19:40 10° NNW 04:23:19 37° W 04:23:32 37° WSW
MOZ.5/SAFIR/RUBIN 5/SL-8 3.9 04:22:13 30° SSW 04:24:17 52° W 04:28:53 10° NNW
ADEOS II 3.2 04:22:40 10° NNE 04:27:39 41° E 04:32:37 10° SSE
Cosmos 1153 Rocket 4.5 04:24:01 20° SSW 04:28:36 78° W 04:34:57 10° N
Cosmos 1726 2.0 04:29:16 37° SSW 04:30:36 70° W 04:34:19 10° N
Cosmos 1328 Rocket 3.9 04:28:12 15° S 04:31:39 62° E 04:35:58 10° NNE
In-Cosmos 22 Rocket 4.2 04:28:08 10° N 04:33:35 78° E 04:38:54 10° SSE
Cosmos 1892 4.4 04:30:29 10° N 04:34:01 34° ENE 04:37:32 10° SE
IRS-1D 4.3 04:29:36 10° N 04:34:17 36° WNW 04:36:35 24° WSW
SL-27 R/B 2.3 04:34:30 35° SSW 04:35:49 90° SW 04:39:16 10° NNE
Cosmos 1666 Rocket 3.8 04:34:44 10° NNW 04:39:02 50° W 04:41:52 20° SSW
Cosmos 1802 Rocket 4.3 04:34:13 10° S 04:40:20 67° E 04:46:34 10° NNE
Cosmos 1805 Rocket 4.4 04:36:58 10° NNW 04:40:55 32° W 04:42:20 26° SW
Cosmos 2221 3.7 04:41:00 23° W 04:42:13 26° WNW 04:45:53 10° NNW
ADEOS 4.2 04:37:33 10° N 04:42:26 41° WNW 04:45:16 22° WSW
Cosmos 2100 Rocket 4.1 04:36:23 10° S 04:42:46 87° E 04:49:11 10° N
Shenzhou-11 Module 4.5 04:42:57 11° SSE 04:43:42 12° SSE 04:45:01 10° SE
Cosmos 1933 Rocket 3.8 04:43:25 10° N 04:47:55 75° E 04:52:21 10° SSE
COSMOS 2406 3.6 04:47:04 21° SW 04:50:39 50° WNW 04:56:13 10° NNE
Cosmos 773 Rocket 4.3 04:46:13 12° S 04:51:07 70° ESE 04:56:26 10° NNE
Cosmos 2285 Rocket 4.2 04:46:52 20° SW 04:51:18 57° WNW 04:57:38 10° NNE
Okean O Rocket 2.6 04:52:54 10° NNE 04:57:12 46° E 05:01:25 10° S
Cosmos 1833 Rocket 4.1 04:53:07 10° S 04:58:13 36° ESE 05:03:19 10° NE
COSMOS 2487 4.4 04:56:20 10° SSE 04:59:23 28° ESE 05:02:29 10° NE
Abrixas 2.6 04:59:00 29° WSW 04:59:46 38° SSW 05:02:14 10° SE
Meteor 2-10 4.2 04:57:16 11° SSW 05:02:48 68° WNW 05:08:26 10° N
Cosmos 482 Debris 3.3 05:04:12 15° WNW 05:05:57 58° SSW 05:09:25 10° SE
Cosmos 1151 Rocket 3.0 05:02:23 10° S 05:06:42 84° E 05:11:00 10° N
Cosmos 2173 Rocket 4.1 05:03:07 10° SSW 05:09:22 67° W 05:15:44 10° N
Cosmos 1980 Rocket 3.9 05:04:21 10° NNW 05:09:33 37° NE 05:14:43 10° ESE
Cosmos 2278 3.6 05:07:32 10° NNW 05:13:12 79° WSW 05:18:50 10° SSE
Cosmos 1300 3.7 05:12:33 16° SW 05:15:00 30° WNW 05:18:25 10° NNW
Sich 1 4.4 05:11:50 10° NW 05:15:10 21° W 05:17:46 13° SW
Resurs 1-4 Rocket 3.8 05:12:47 10° NNW 05:16:08 17° WNW 05:19:26 10° W
SL-16 R/B 4.2 05:15:37 11° WSW 05:17:25 13° W 05:20:05 10° WNW
BREEZE M DEB (TANK) 3.2 05:17:34 17° SW 05:18:06 19° SSW 05:20:00 10° SSE
Cosmos 1697 Rocket 3.0 05:19:58 10° NNW 05:25:40 76° ENE 05:31:20 10° SSE
CZ-2D R/B 4.0 05:23:33 10° NNW 05:26:31 15° NW 05:29:28 10° W
CZ-4B DEB 4.4 05:21:29 10° NNE 05:27:03 79° ESE 05:32:33 10° SSW
Cosmos 1470 Rocket 4.3 05:27:29 10° NNW 05:31:21 33° W 05:35:13 10° SSW
Cosmos 1455 2.1 05:27:44 10° S 05:31:30 87° W 05:35:17 10° N
Cosmos 1459 Rocket 4.4 05:26:39 10° SW 05:32:26 43° WNW 05:38:13 10° N
Cosmos 2228 Rocket 3.9 05:31:46 10° SW 05:35:50 33° WNW 05:39:53 10° N
ATLAS 2AS CENTAUR R/B 3.9 05:28:59 10° NW 05:36:57 55° NE 05:44:22 10° ESE
IRS-1C Rocket 4.2 05:36:15 10° NNE 05:41:33 89° WNW 05:46:49 10° SSW
Cosmos 2082 Rocket 2.3 05:37:05 10° SSW 05:42:42 82° ESE 05:48:22 10° NNE
Cosmos 1515 Rocket 4.4 05:38:57 10° SW 05:42:56 33° WNW 05:46:58 10° N
NOSS 3-1 (A) 4.3 05:35:49 10° NW 05:43:04 48° WSW 05:51:01 10° S
Cosmos 923 Rocket 4.0 05:39:26 10° SSW 05:44:38 71° WNW 05:49:54 10° NNE
Meteor 2-3 Rocket 4.0 05:39:43 10° NNW 05:45:05 47° W 05:50:29 10° SSW
